Weather History for KP59 - March, 2013

Change the Weather History Date:

Sunday, March 24, 2013

  Actual Average Record
Temperature  
Mean Temperature 30 °F -  
Max Temperature 33 °F 35 °F 57 °F (2003)
Min Temperature 27 °F 22 °F 0 °F (1997)
Degree Days  
Heating Degree Days 35    
Moisture  
Dew Point 23 °F    
Average Humidity 76    
Maximum Humidity 92    
Minimum Humidity 67    
Precipitation  
Precipitation 0.01 in - - ()
Sea Level Pressure  
Sea Level Pressure 30.10 in    
Wind  
Wind Speed 10 mph (ENE)    
Max Wind Speed 16 mph    
Max Gust Speed 23 mph    
Averages and records for this station are not official NWS values.
T = Trace of Precipitation, MM = Missing Value Source: NWS Daily Summary

Daily Weather History Graph

Daily Weather History Graph

Search for Another Location

Airport or City:

Trip Planner

Search our weather history database for the weather conditions in past years. The results will help you decide how hot, cold, wet, or windy it might be!

Date:

Astronomy

Mar. 24, 2013 Rise Set
Actual Time 7:45 AM EDT 8:10 PM EDT
Civil Twilight 7:15 AM EDT 8:41 PM EDT
Nautical Twilight 6:38 AM EDT 9:17 PM EDT
Astronomical Twilight 6:01 AM EDT 9:55 PM EDT
Moon 5:30 PM EDT (3/24) 6:06 AM EDT (3/24)
Length of Visible Light 13h 26m
Length of Day
12h 24m
Waxing Gibbous, 91% of the Moon is Illuminated
Mar 24
Waxing Gibbous
Mar 27
Full
Apr 3
Last Quarter
Apr 10
New
Apr 18
First Quarter

Hourly Weather History & Observations

Time (EDT) Temp. Windchill Dew Point Humidity Pressure Visibility Wind Dir Wind Speed Gust Speed Precip Events Conditions
12:51 AM 30.9 °F 22.8 °F 21.0 °F 67% 30.17 in - ENE 9.2 mph - N/A   Unknown
1:51 AM 30.9 °F 22.8 °F 21.0 °F 67% 30.16 in - ENE 9.2 mph - N/A   Unknown
2:51 AM 30.0 °F 20.0 °F 25.0 °F 82% 30.16 in - ENE 12.7 mph - N/A   Unknown
3:51 AM 28.0 °F 24.2 °F 25.0 °F 88% 30.15 in - SE 3.5 mph - 0.01 in   Unknown
4:51 AM 28.0 °F 24.2 °F 26.1 °F 92% 30.15 in - West 3.5 mph - N/A   Unknown
5:51 AM 30.0 °F 24.1 °F 21.9 °F 72% 30.13 in - East 5.8 mph - N/A   Unknown
6:51 AM 30.0 °F 23.2 °F 21.0 °F 69% 30.14 in - ENE 6.9 mph - N/A   Unknown
7:51 AM 30.0 °F 21.7 °F 21.0 °F 69% 30.15 in - East 9.2 mph - N/A   Unknown
8:51 AM 28.9 °F 22.8 °F 23.0 °F 78% 30.16 in - East 5.8 mph - N/A   Unknown
9:51 AM 28.9 °F 21.1 °F 23.0 °F 78% 30.15 in - East 8.1 mph 17.3 mph N/A   Unknown
10:51 AM 28.9 °F 19.2 °F 21.9 °F 75% 30.14 in - East 11.5 mph - N/A   Unknown
11:51 AM 28.0 °F 16.1 °F 21.9 °F 78% 30.14 in - ENE 16.1 mph 23.0 mph N/A   Unknown
12:51 PM 28.0 °F 18.6 °F 19.0 °F 69% 30.12 in - ENE 10.4 mph - N/A   Unknown
1:51 PM 28.9 °F 18.2 °F 21.9 °F 75% 30.12 in - ENE 13.8 mph - N/A   Unknown
2:51 PM 28.9 °F 18.6 °F 21.9 °F 75% 30.10 in - ENE 12.7 mph - N/A   Unknown
3:51 PM 28.0 °F 17.0 °F 21.0 °F 75% 30.08 in - ENE 13.8 mph - N/A   Unknown
4:51 PM 27.0 °F 17.3 °F 21.0 °F 78% 30.06 in - NNE 10.4 mph - N/A   Unknown
5:51 PM 28.0 °F 17.0 °F 21.9 °F 78% 30.05 in - ENE 13.8 mph - N/A   Unknown
6:51 PM 28.9 °F 18.6 °F 21.9 °F 75% 30.03 in - ENE 12.7 mph - N/A   Unknown
7:51 PM 30.9 °F 22.2 °F 24.1 °F 76% 30.02 in - NE 10.4 mph - N/A   Unknown
8:51 PM 30.9 °F 20.2 °F 24.1 °F 76% 30.01 in - NNE 15.0 mph - N/A   Unknown
9:51 PM 33.1 °F 23.9 °F 26.1 °F 75% 30.02 in - NE 12.7 mph - N/A   Unknown
10:51 PM 32.0 °F 21.6 °F 26.1 °F 79% 30.02 in - NNE 15.0 mph - N/A   Unknown
11:51 PM 32.0 °F 22.5 °F 28.0 °F 85% 30.01 in - NE 12.7 mph - N/A   Unknown